Weather History for Buffalo, WY

Change the Weather History Date:

Sunday, April 7, 2013

  Actual Average Record
Temperature  
Mean Temperature 48 °F 40 °F  
Max Temperature 59 °F 52 °F 77 °F (2005)
Min Temperature 36 °F 29 °F 17 °F (2007)
Degree Days  
Heating Degree Days 17 25  
Month to date heating degree days 122 178  
Since 1 July heating degree days 6006 6368  
Cooling Degree Days 0 0  
Month to date cooling degree days 0 0  
Year to date cooling degree days 0 0  
Moisture  
Dew Point 33 °F    
Average Humidity 56    
Maximum Humidity 82    
Minimum Humidity 30    
Precipitation  
Precipitation T in 0.03 in 0.19 in (2011)
Month to date precipitation 0.16 0.19  
Year to date precipitation 0.85 1.88  
Sea Level Pressure  
Sea Level Pressure 29.63 in    
Wind  
Wind Speed 6 mph (NW)    
Max Wind Speed 17 mph    
Max Gust Speed 24 mph    
Visibility 10 miles    
Events      
T = Trace of Precipitation, MM = Missing Value Source: NWS Daily Summary

Daily Weather History Graph

Daily Weather History Graph

Search for Another Location

Airport:

Trip Planner

Search our weather history database for the weather conditions in past years. The results will help you decide how hot, cold, wet, or windy it might be!

Date:

Astronomy

Apr. 07, 2013 Rise Set
Actual Time 6:36 AM MDT 7:41 PM MDT
Civil Twilight 6:06 AM MDT 8:11 PM MDT
Nautical Twilight 5:31 AM MDT 8:47 PM MDT
Astronomical Twilight 4:54 AM MDT 9:25 PM MDT
Moon 5:01 AM MDT (4/7) 5:12 PM MDT (4/7)
Length of Visible Light 14h 04m
Length of Day
13h 05m
Waning Crescent, 8% of the Moon is Illuminated
Apr 7
Waning Crescent
Apr 10
New
Apr 18
First Quarter
Apr 25
Full
May 2
Last Quarter

Hourly Weather History & Observations

Time (MDT) Temp. Windchill Dew Point Humidity Pressure Visibility Wind Dir Wind Speed Gust Speed Precip Events Conditions
12:53 AM 41.0 °F 33.9 °F 34.0 °F 76% 29.76 in 10.0 mi NNW 12.7 mph 20.7 mph N/A   Partly Cloudy
1:53 AM 39.9 °F 37.8 °F 32.0 °F 73% 29.75 in 10.0 mi WNW 3.5 mph - N/A   Clear
2:53 AM 37.0 °F 31.6 °F 32.0 °F 82% 29.74 in 10.0 mi NW 6.9 mph - N/A   Clear
3:53 AM 37.0 °F 32.4 °F 32.0 °F 82% 29.73 in 10.0 mi SW 5.8 mph - N/A   Clear
4:53 AM 37.9 °F 33.5 °F 32.0 °F 79% 29.73 in 10.0 mi West 5.8 mph - N/A   Partly Cloudy
5:53 AM 39.9 °F - 32.0 °F 73% 29.72 in 10.0 mi Calm Calm - N/A   Mostly Cloudy
6:53 AM 37.9 °F 32.1 °F 32.0 °F 79% 29.75 in 10.0 mi NNW 8.1 mph - N/A   Clear
7:53 AM 41.0 °F - 32.0 °F 70% 29.74 in 10.0 mi Calm Calm - N/A   Mostly Cloudy
8:53 AM 46.0 °F 42.5 °F 33.1 °F 61% 29.71 in 10.0 mi NNW 6.9 mph - N/A   Clear
9:53 AM 48.0 °F - 33.1 °F 56% 29.67 in 10.0 mi Variable 3.5 mph - N/A   Clear
10:53 AM 51.1 °F - 34.0 °F 52% 29.63 in 10.0 mi SE 11.5 mph - N/A   Clear
11:53 AM 54.0 °F - 34.0 °F 47% 29.61 in 10.0 mi SE 13.8 mph 19.6 mph N/A   Partly Cloudy
12:53 PM 54.0 °F - 30.9 °F 41% 29.58 in 10.0 mi South 11.5 mph - N/A   Overcast
1:53 PM 55.9 °F - 25.0 °F 30% 29.55 in 10.0 mi Calm Calm - N/A   Clear
2:53 PM 57.0 °F - 28.0 °F 33% 29.54 in 10.0 mi North 10.4 mph - N/A   Scattered Clouds
3:53 PM 55.9 °F - 32.0 °F 40% 29.52 in 10.0 mi NNE 8.1 mph - 0.00 in   Mostly Cloudy
4:53 PM 55.0 °F - 30.0 °F 38% 29.51 in 10.0 mi Variable 3.5 mph - N/A   Clear
5:53 PM 54.0 °F - 30.9 °F 41% 29.52 in 10.0 mi NNW 3.5 mph - N/A   Scattered Clouds
6:53 PM 53.1 °F - 34.0 °F 48% 29.52 in 10.0 mi NE 4.6 mph - N/A   Clear
7:53 PM 46.0 °F 44.8 °F 35.1 °F 66% 29.53 in 10.0 mi South 3.5 mph - N/A   Clear
8:53 PM 46.0 °F 44.8 °F 36.0 °F 68% 29.56 in 10.0 mi Variable 3.5 mph - N/A   Mostly Cloudy
9:53 PM 45.0 °F - 37.0 °F 74% 29.56 in 10.0 mi Calm Calm - N/A   Overcast
10:53 PM 43.0 °F 38.8 °F 37.0 °F 80% 29.56 in 10.0 mi WNW 6.9 mph - N/A   Clear
11:53 PM 42.1 °F 38.4 °F 37.0 °F 82% 29.55 in 10.0 mi NNW 5.8 mph - N/A   Mostly Cloudy